www.pogodaiklimat.ru

Погода и климат >> Архив погоды >> КНДР >> Вонсан


ПОГОДА в Вонсане

  • Прогноз погоды в Вонсане
  • Монитор погоды в Вонсане

АРХИВ ПОГОДЫ в Вонсане

Время (UTC), дата Ветер
(напр.,м/с)
 
Видим.   Явления Облачность Т
(С)
Тd
(С)
f
(%)
Тe
(С)
Тes
(С)
Комфортность P
(гПа)
Po
(гПа)
Тmin
(С)
Tmax
(С)
R
(мм)
R24
(мм)
S
(см)
09 19.03 З 3 20 км ясно +20.4 +3.0 32 +21 +21 комфорт 1011.1 1006.8
12 19.03 ЮЗ 2 20 км ясно +15.3 +4.6 49 +15 +15 1013.5 1009.1 +23.5
15 19.03 ЮЗ 3 20 км 9/0
[As trans]
+14.2 +4.3 51 +13 +13 1014.7 1010.3
18 19.03 штиль 0 20 км 9/0
[Ac trans Ci fib]
+13.0 +3.0 51 +13 +13 1014.3 1009.9
21 19.03 штиль 0 15 км 5/0
[Ci fib]
+11.0 +2.1 54 +11 +11 1013.8 1009.4
00 20.03 штиль 0 10 км 10/0
[Ac trans]
+12.4 +2.3 50 +12 +15 1015.5 1011.1 +9.1
03 20.03 штиль 0 10 км 10/0
[Ac trans]
+15.7 +3.8 45 +16 +23 1013.8 1009.4
06 20.03 штиль 0 10 км 10/0
[Ac trans]
+15.9 +3.2 43 +16 +21 1012.4 1008.1
09 20.03 В 1 10 км 10/0
[Ac trans]
+14.4 +5.3 54 +15 +15 1011.0 1006.7
12 20.03 штиль 0 5000 м слаб. дождь 10/0 600 м
[As op]
+9.3 +7.0 86 +9 +9 1010.1 1005.8 +17.2 25
15 20.03 штиль 0 5000 м слаб. дождь 10/0 600 м
[As op]
+9.1 +8.1 93 +8 +8 1008.4 1004.1
18 20.03 штиль 0 5000 м слаб. дождь 10/0 600 м
[As op]
+7.9 +6.8 93 +7 +7 1006.4 1002.1 20
21 20.03 штиль 0 10 км 10/10 600 м
[Sc]
+8.1 +6.5 90 +7 +7 1005.1 1000.8
00 21.03 З 1 20 км 6/6 600 м
[Sc Ac trans]
+10.7 +7.8 82 +10 +13 1003.1 998.7 +7.4
03 21.03 З 3 20 км 9/9 600 м
[Sc]
+12.2 +6.1 66 +11 +12 1002.0 997.6
06 21.03 З 7 20 км 6/6 600 м
[Sc]
+11.6 +3.9 59 +9 +10 1001.6 997.2
09 21.03 З 2 20 км 3/0
[Ac trans]
+7.8 -0.7 55 +6 +6 1004.1 999.7
12 21.03 З 1 20 км ясно +5.7 -2.7 55 +5 +5 1006.7 1002.2 +13.5
15 21.03 З 1 20 км ясно +3.8 -5.0 53 +3 +3 1009.1 1004.6
18 21.03 З 5 20 км ясно +2.4 -6.4 52 -2 -2 1011.5 1007.0
00 22.03 штиль 0 20 км ясно +3.8 -9.4 37 +4 +11 1019.0 1014.5 -0.2
03 22.03 З 3 20 км ясно +8.3 -12.2 22 +7 +18 опасность
простуды
1018.5 1014.0
06 22.03 З 5 20 км ясно +9.3 -12.7 20 +7 +12 1016.7 1012.3
09 22.03 З 3 20 км ясно +8.0 -12.7 22 +6 +7 1017.0 1012.6
12 22.03 З 5 20 км ясно +5.5 -11.2 29 +2 +2 1019.3 1014.7 +10.0
15 22.03 З 2 20 км ясно +4.1 -9.0 38 +2 +2 1021.2 1016.6
18 22.03 штиль 0 20 км ясно +1.6 -6.0 57 +1 +1 1020.5 1015.9
21 22.03 штиль 0 20 км ясно +1.0 -6.7 56 +1 +1 1019.4 1014.8
00 23.03 штиль 0 20 км 8/8 600 м
[Sc]
+3.6 -7.1 45 +3 +5 1019.8 1015.2 0.0
03 23.03 З 3 20 км 8/8 300 м
[Cu Sc]
+6.9 -1.9 53 +4 +7 1018.5 1014.0
06 23.03 З 5 20 км 8/0
[Ci fib]
+8.3 -7.4 32 +5 +9 1016.8 1012.3
09 23.03 З 4 20 км 5/0
[Ci fib]
+7.4 -6.7 36 +5 +5 1017.8 1013.3
12 23.03 З 1 20 км ясно +4.4 -7.9 40 +4 +4 1018.8 1014.3 +8.8
15 23.03 штиль 0 20 км ясно +3.5 -7.1 46 +3 +3 1020.8 1016.3
18 23.03 З 3 20 км ясно +3.8 -9.0 39 +1 +1 1020.8 1016.3
21 23.03 З 1 20 км ясно +2.4 -9.4 41 +2 +2 1020.8 1016.3
00 24.03 З 2 20 км ясно +5.3 -9.0 35 +4 +9 1019.6 1015.0 +1.0
03 24.03 З 6 20 км ясно +9.3 -7.4 30 +6 +12 1017.4 1012.9
06 24.03 З 7 20 км ясно +12.3 -5.0 29 +10 +13 1014.7 1010.3
09 24.03 З 1 20 км ясно +11.7 -6.7 27 +12 +13 1012.7 1008.3
12 24.03 З 1 20 км ясно +7.7 -6.4 36 +8 +8 1014.9 1010.4 +12.8
15 24.03 Ю 5 20 км ясно +6.0 -4.1 48 +2 +2 1015.8 1011.3
18 24.03 штиль 0 20 км ясно +5.3 -2.5 57 +5 +5 1015.3 1010.8
21 24.03 штиль 0 20 км ясно +5.2 -0.2 68 +5 +5 1013.3 1008.8
00 25.03 З 1 10 км дымка ясно +9.2 +0.9 56 +9 +16 1013.2 1008.8 +3.7
03 25.03 штиль 0 15 км ясно +12.5 +1.5 47 +12 +31 опасность
простуды
1012.9 1008.5
06 25.03 Ю 8 15 км 4/4 600 м
[Sc]
+12.0 +2.7 53 +9 +10 1011.4 1007.0
09 25.03 Ю 1 15 км 6/6 600 м
[Sc]
+10.7 +2.9 59 +11 +11 1012.1 1007.7
12 25.03 Ю 2 20 км ясно +10.2 +3.0 61 +9 +9 1012.8 1009.4 +14.8
15 25.03 штиль 0 20 км ясно +8.9 +3.0 66 +8 +8 1013.5 1009.1
18 25.03 ЮЗ 2 20 км ясно +9.7 +2.5 61 +8 +8 1012.8 1008.4
21 25.03 З 2 20 км ясно +9.4 +0.4 53 +8 +8 1013.5 1009.8
00 26.03 З 2 20 км ясно +11.3 -4.1 34 +11 +16 1015.2 1010.8 +7.7
03 26.03 ЮЗ 2 20 км ясно +15.2 -9.4 17 +15 +30 опасность
простуды
1016.0 1011.6
06 26.03 СЗ 5 25 км ясно +17.9 -8.6 16 +18 +23 1014.0 1009.7

 

Местоположение метеостанции Вонсан (КНДР): широта 39.18 долгота 127.43 высота над уровнем моря 36 м.

В архиве по умолчанию представлена погода в Вонсане за последнюю неделю. Архивные данные за месяц целиком и за предыдущие месяцы, начиная с января 2011 года, Вы можете получить, выбрав интересующий диапазон дат из раскрывающегося списка и нажав кнопку "Ввод!".


*Определитесь, кто Вы:
робот инопланетянин человек

Внимание! Время в таблицах - всемирное. Для получения местного времени необходимо прибавить поправку, которая равна 9 ч.

Смотрите также архив погоды в соседних городах и на ближайших метеорологических станциях:

Погода в Янгдоке (КНДР) (67 км)
Погода в Чангионе (КНДР) (82 км)
Погода в Хамхыне (КНДР) (84 км)
Погода в Пхенганге (КНДР) (86 км)
Погода в Сингяе (КНДР) (109 км)
Погода в Синпхо (КНДР) (114 км)
Погода в Чхорвоне (Корея) (115 км)
Погода в Джангджине (КНДР) (133 км)
Погода в Букчунчеоне (Корея) (138 км)
Погода в Сокчхо (Корея) (143 км)

Пояснения к столбцам:

Ветер - указаны скорость ветра в м/с - средняя за 10 мин, порывы в срок и между сроками (в фигурных скобках) и направление, откуда дует ветер: С - северный, СВ - северо-восточный, В - восточный, ЮВ - юго-восточный, Ю - южный, ЮЗ - юго-западный, З - западный, СЗ - северо-западный.
Видимость - горизонтальная дальность видимости в метрах или километрах. При видимости от 1 до 10 км при отсутствии осадков обычно наблюдается дымка, при ухудшении видимости до 1 км и менее - туман. В сухую погоду видимость может ухудшаться дымом, пылью или мглою.
Явления - указаны атмосферные явления, наблюдавшиеся в срок или в последний час перед сроком; фигурными скобками обозначены явления, наблюдавшиеся между сроками (за 1-3 часа до срока); квадратными скобками обозначены град или гололедные отложения с указанием их диаметра в мм.
Облачность - указаны через наклонную черту общая и нижняя облачность в баллах и высота нижней границы облаков в метрах; квадратными скобками обозначены формы облаков: Ci - перистые, Cs - перисто-слоистые, Cc - перисто-кучевые, Ac - высококучевые, As - высокослоистые, Sc - слоисто-кучевые, Ns - слоисто-дождевые, Cu - кучевые, Cb - кучево-дождевые. Подробнее классификацию облаков см. в Атласе облаков (PDF).
T - Температура воздуха - температура, измеренная на высоте 2 м над землей.
Td - Температура точки росы - температура, при понижении до которой содержащийся в воздухе водяной пар достигнет насыщения.
f - Относительная влажность воздуха - влажноcть воздуха, измеренная на высоте 2 м над землей.
Te - Эффективная температура - температура, которую ощущает одетый по сезону человек в тени. Характеристика душности погоды. При расчете учитывается влияние влажности воздуха и скорости ветра на теплоощущения человека.
Tes - Эффективная температура на солнце - температура, которую ощущает человек, с поправкой на солнечный нагрев. Характеристика знойности погоды. Зависит от высоты солнца над горизонтом, облачности и скорости ветра. Ночью, в пасмурную погоду, а также при ветре 12 м/с и более поправка равна нулю.
P - Атмосферное давление - приведенное к уровню моря атмосферное давление.
Po - Атмосферное давление - измеренное на уровне метеостанции атмосферное давление.
Tmin - Минимальная температура - минимум температуры воздуха на высоте 2 м над землей.
Tmax - Максимальная температура - максимум температуры воздуха на высоте 2 м над землей.
R - Количество осадков - Количество выпавших осадков за период времени, мм. При наведении курсора мыши на число - период времени, за который выпало указанное количество осадков.
R24 - Количество осадков - Количество выпавших осадков за 24 часа, мм.
S - Снежный покров - Высота снежного покрова, см. При наведении курсора мыши на число - состояние снежного покрова и степень покрытия местности в баллах.